Погода во Владимире

Россия / Владимирская область     56°07′44″N   40°24′23″E
темп.,
°C
ветер,
м/с
пор.,
м/с
влажн.,
%
обл.,
%
осадки,
мм/ч
давл.,
гПа
погр.,
м
7 августа, вс
вс700:00+19ююв22683 0.0 101914
03:00+19ю22713 0.0 101822
06:00+19ю367722 0.2 1018129
09:00+25ююз35545 0.3 1018479
12:00+30ююз46365 0.0 10172279
15:00+28ююз4641100 0.0 1016961
18:00+29зюз583992 0.0 10161311
21:00+17ссз249394 0.4 101885
8 августа, пн
пн800:00+17с2696100 1.9 1019164
03:00+16с3698100 2.1 1020163
06:00+17с2596100 0.1 1021185
09:00+19ссв4582100 0.1 1021399
12:00+19с2380100 0.3 1022356
15:00+21ссв227218 0.3 1022454
18:00+23св22565 0.0 1020804
21:00+18св3484100 0.4 102173
9 августа, вт
вт900:00+16ссв369496 1.0 1021114
03:00+16св379696 3.8 1021182
06:00+16св4895100 2.7 1020231
09:00+18всв3689100 3.3 1020353
12:00+22всв3370100 0.0 1020812
15:00+19всв2386100 0.5 1019168
18:00+18с3596100 5.3 1019249
21:00+17ссв3499100 10.4 1020161
10 августа, ср
ср1000:00+16с3698100 0.3 1019196
03:00+16ссз2497100 0.3 1019160
06:00+15сз2497100 0.0 1019175
09:00+18ссз2384100 0.1 1019514
12:00+19сз3478100 1.2 1019819
15:00+21сз356369 2.2 10181130
18:00+20сз46642 0.1 10181041
21:00+14зсз49882 0.2 1019225
11 августа, чт
чт1100:00+13зсз411951 0.0 1020309
03:00+12ссз51096100 0.0 1021417
06:00+14ссз4109129 0.0 1022504
09:00+18с58651 0.0 1023853
12:00+22ссз45470 0.0 10231755
15:00+23ссз453719 0.0 10222318
18:00+21ссз47489 0.0 1023562
21:00+16зсз226389 0.0 102320